Darstellungsparameter: Aktuell verwendete Einstellungen:
Skalierung der Graphiken ... ?
xyx+y,   Skalierungsfaktor:      Skalierung: Modus: x, Faktor: 1
Darstellungszeitraum ... ?
Vom - - bis: - -   Zeitraum: 01.02.2019 - 01.02.2019
Min/Max/Avg-Anzeige ... ?
Zeige MMA aktuell
Zeige MMA Monat
Zeige MMA alles
Zeige --A aktuell
Zeige --A Monat
Zeige --A alles
Keine MMA-Anzeige
MMA:
Keine MMA-Graphiken
MMA-Basis: 01.02.2019 - 01.02.2019
Quicknavigation für Darstellung... ?
Tage:      1T, 2T, 3T, 5T -1T -2T -3T -5T +1T +2T +3T +5T
Wochen: 1W, 2W, 3W -1W -2W -3W +1W +2W +3W
Monate: 1M, 3M, 6M -1M -3M -6M +1M +3M +6M
Jahre:    1J, 3J, 5J, 10J -1J -3J -5J -10J +1J +3J +5J +10J
Nutze für die Darstellung ... ?
Originaldaten oder Mittelwerte auf ...
Stundenbasis Tagesbasis Wochenbasis
Monatsbasis Jahresbasis      Datenbasis: Original-Daten
Darstellen als:
Statistik (Auto) Statistik J:M      Darstellung:
Zur Graphik,    zurück zur Übersicht aller Sensoren.
 
Tabellarische Datenbersicht: ?
 
Sensor: Nr:Datum:Temp:Feuchte:Taupunkt:
Aussen-T/F 1 01-02-2019 00:00:00 -0.9 C 96 % -1.46 C
2 01-02-2019 00:05:00 -0.9 C 96 % -1.46 C
3 01-02-2019 00:10:00 -0.9 C 96 % -1.46 C
4 01-02-2019 00:15:00 -0.8 C 96 % -1.36 C
5 01-02-2019 00:20:00 -0.8 C 96 % -1.36 C
6 01-02-2019 00:25:00 -0.8 C 96 % -1.36 C
7 01-02-2019 00:30:00 -0.8 C 96 % -1.36 C
8 01-02-2019 00:35:00 -0.7 C 96 % -1.26 C
9 01-02-2019 00:40:00 -0.7 C 96 % -1.26 C
10 01-02-2019 00:45:00 -0.7 C 96 % -1.26 C
11 01-02-2019 00:50:00 -0.7 C 96 % -1.26 C
12 01-02-2019 00:55:00 -0.6 C 96 % -1.16 C
13 01-02-2019 01:00:00 -0.6 C 96 % -1.16 C
14 01-02-2019 01:05:00 -0.6 C 96 % -1.16 C
15 01-02-2019 01:10:00 -0.5 C 96 % -1.06 C
16 01-02-2019 01:15:00 -0.5 C 96 % -1.06 C
17 01-02-2019 01:20:00 -0.4 C 96 % -0.96 C
18 01-02-2019 01:25:00 -0.4 C 96 % -0.96 C
19 01-02-2019 01:30:00 -0.4 C 96 % -0.96 C
20 01-02-2019 01:35:00 -0.4 C 96 % -0.96 C
21 01-02-2019 01:40:00 -0.4 C 96 % -0.96 C
22 01-02-2019 01:45:00 -0.4 C 96 % -0.96 C
23 01-02-2019 01:50:00 -0.4 C 96 % -0.96 C
24 01-02-2019 01:55:00 -0.3 C 96 % -0.86 C
25 01-02-2019 02:00:00 -0.3 C 96 % -0.86 C
Sensor: Nr:Datum:Temp:Feuchte:Taupunkt:
Aussen-T/F 26 01-02-2019 02:05:00 -0.3 C 96 % -0.86 C
27 01-02-2019 02:10:00 -0.2 C 96 % -0.76 C
28 01-02-2019 02:15:00 -0.2 C 96 % -0.76 C
29 01-02-2019 02:20:00 -0.2 C 96 % -0.76 C
30 01-02-2019 02:25:00 -0.2 C 96 % -0.76 C
31 01-02-2019 02:30:00 -0.1 C 96 % -0.66 C
32 01-02-2019 02:35:00 -0.1 C 96 % -0.66 C
33 01-02-2019 02:40:00 -0.1 C 96 % -0.66 C
34 01-02-2019 02:45:00 0 C 96 % -0.56 C
35 01-02-2019 02:50:00 0.1 C 96 % -0.46 C
36 01-02-2019 02:55:00 0.1 C 96 % -0.46 C
37 01-02-2019 03:00:00 0.2 C 96 % -0.36 C
38 01-02-2019 03:05:00 0.3 C 96 % -0.26 C
39 01-02-2019 03:10:00 0.4 C 97 % -0.02 C
40 01-02-2019 03:15:00 0.4 C 97 % -0.02 C
41 01-02-2019 03:20:00 0.5 C 97 % 0.08 C
42 01-02-2019 03:25:00 0.6 C 97 % 0.18 C
43 01-02-2019 03:30:00 0.6 C 96 % 0.04 C
44 01-02-2019 03:35:00 0.7 C 97 % 0.28 C
45 01-02-2019 03:40:00 0.7 C 97 % 0.28 C
46 01-02-2019 03:45:00 0.8 C 97 % 0.38 C
47 01-02-2019 03:50:00 0.8 C 97 % 0.38 C
48 01-02-2019 03:55:00 0.9 C 97 % 0.48 C
49 01-02-2019 04:00:00 0.9 C 97 % 0.48 C
50 01-02-2019 04:05:00 0.9 C 97 % 0.48 C
Sensor: Nr:Datum:Temp:Feuchte:Taupunkt:
Aussen-T/F 51 01-02-2019 04:10:00 0.9 C 97 % 0.48 C
52 01-02-2019 04:15:00 1 C 96 % 0.44 C
53 01-02-2019 04:20:00 1.1 C 96 % 0.54 C
54 01-02-2019 04:25:00 1.1 C 96 % 0.54 C
55 01-02-2019 04:30:00 1.1 C 96 % 0.54 C
56 01-02-2019 04:35:00 1.2 C 96 % 0.63 C
57 01-02-2019 04:40:00 1.2 C 96 % 0.63 C
58 01-02-2019 04:45:00 1.2 C 96 % 0.63 C
59 01-02-2019 04:50:00 1.2 C 96 % 0.63 C
60 01-02-2019 04:55:00 1.2 C 96 % 0.63 C
61 01-02-2019 05:00:00 1.2 C 96 % 0.63 C
62 01-02-2019 05:05:00 1.2 C 95 % 0.49 C
63 01-02-2019 05:10:00 1.1 C 96 % 0.54 C
64 01-02-2019 05:15:00 1.2 C 96 % 0.63 C
65 01-02-2019 05:20:00 1.1 C 96 % 0.54 C
66 01-02-2019 05:25:00 1.2 C 96 % 0.63 C
67 01-02-2019 05:30:00 1.2 C 96 % 0.63 C
68 01-02-2019 05:35:00 1.2 C 96 % 0.63 C
69 01-02-2019 05:40:00 1.2 C 96 % 0.63 C
70 01-02-2019 05:45:00 1.2 C 96 % 0.63 C
71 01-02-2019 05:50:00 1.2 C 96 % 0.63 C
72 01-02-2019 05:55:00 1.2 C 96 % 0.63 C
73 01-02-2019 06:00:00 1.2 C 96 % 0.63 C
74 01-02-2019 06:05:00 1.2 C 96 % 0.63 C
75 01-02-2019 06:10:00 1.2 C 96 % 0.63 C
Sensor: Nr:Datum:Temp:Feuchte:Taupunkt:
Aussen-T/F 76 01-02-2019 06:15:00 1.2 C 96 % 0.63 C
77 01-02-2019 06:20:00 1.1 C 95 % 0.39 C
78 01-02-2019 06:25:00 1.1 C 95 % 0.39 C
79 01-02-2019 06:30:00 1.1 C 96 % 0.54 C
80 01-02-2019 06:35:00 1.1 C 96 % 0.54 C
81 01-02-2019 06:40:00 1.1 C 96 % 0.54 C
82 01-02-2019 06:45:00 1.1 C 96 % 0.54 C
83 01-02-2019 06:50:00 1.1 C 96 % 0.54 C
84 01-02-2019 06:55:00 1.1 C 96 % 0.54 C
85 01-02-2019 07:00:00 1.1 C 96 % 0.54 C
86 01-02-2019 07:05:00 1.1 C 96 % 0.54 C
87 01-02-2019 07:10:00 1.1 C 96 % 0.54 C
88 01-02-2019 07:15:00 1.1 C 96 % 0.54 C
89 01-02-2019 07:20:00 1.1 C 96 % 0.54 C
90 01-02-2019 07:25:00 1.2 C 96 % 0.63 C
91 01-02-2019 07:30:00 1.2 C 96 % 0.63 C
92 01-02-2019 07:35:00 1.2 C 96 % 0.63 C
93 01-02-2019 07:40:00 1.2 C 96 % 0.63 C
94 01-02-2019 07:45:00 1.3 C 96 % 0.73 C
95 01-02-2019 07:50:00 1.4 C 96 % 0.83 C
96 01-02-2019 07:55:00 1.4 C 96 % 0.83 C
97 01-02-2019 08:00:00 1.4 C 96 % 0.83 C
98 01-02-2019 08:05:00 1.3 C 96 % 0.73 C
99 01-02-2019 08:10:00 1.3 C 96 % 0.73 C
100 01-02-2019 08:15:00 1.3 C 96 % 0.73 C
Sensor: Nr:Datum:Temp:Feuchte:Taupunkt:
Aussen-T/F 101 01-02-2019 08:20:00 1.3 C 96 % 0.73 C
102 01-02-2019 08:25:00 1.3 C 96 % 0.73 C
103 01-02-2019 08:30:00 1.3 C 96 % 0.73 C
104 01-02-2019 08:35:00 1.2 C 96 % 0.63 C
105 01-02-2019 08:40:00 1.2 C 96 % 0.63 C
106 01-02-2019 08:45:00 1.2 C 96 % 0.63 C
107 01-02-2019 08:50:00 1.4 C 96 % 0.83 C
108 01-02-2019 08:55:00 1.6 C 97 % 1.18 C
109 01-02-2019 09:00:00 1.8 C 96 % 1.23 C
110 01-02-2019 09:05:00 1.8 C 96 % 1.23 C
111 01-02-2019 09:10:00 1.7 C 96 % 1.13 C
112 01-02-2019 09:15:00 1.7 C 96 % 1.13 C
113 01-02-2019 09:20:00 1.6 C 96 % 1.03 C
114 01-02-2019 09:25:00 1.5 C 96 % 0.93 C
115 01-02-2019 09:30:00 1.4 C 96 % 0.83 C
116 01-02-2019 09:35:00 1.4 C 96 % 0.83 C
117 01-02-2019 09:40:00 1.4 C 96 % 0.83 C
118 01-02-2019 09:45:00 1.3 C 96 % 0.73 C
119 01-02-2019 09:50:00 1.4 C 96 % 0.83 C
120 01-02-2019 09:55:00 1.5 C 96 % 0.93 C
121 01-02-2019 10:00:00 1.6 C 96 % 1.03 C
122 01-02-2019 10:05:00 1.8 C 96 % 1.23 C
123 01-02-2019 10:10:00 1.9 C 96 % 1.33 C
124 01-02-2019 10:15:00 2 C 96 % 1.43 C
125 01-02-2019 10:20:00 2.1 C 96 % 1.53 C
Sensor: Nr:Datum:Temp:Feuchte:Taupunkt:
Aussen-T/F 126 01-02-2019 10:25:00 2.2 C 96 % 1.63 C
127 01-02-2019 10:30:00 2.3 C 96 % 1.73 C
128 01-02-2019 10:35:00 2.4 C 96 % 1.83 C
129 01-02-2019 10:40:00 2.4 C 96 % 1.83 C
130 01-02-2019 10:45:00 2.6 C 96 % 2.03 C
131 01-02-2019 10:50:00 2.6 C 96 % 2.03 C
132 01-02-2019 10:55:00 2.7 C 96 % 2.13 C
133 01-02-2019 11:00:00 2.7 C 96 % 2.13 C
134 01-02-2019 11:05:00 2.8 C 96 % 2.23 C
135 01-02-2019 11:10:00 2.9 C 96 % 2.33 C
136 01-02-2019 11:15:00 3 C 95 % 2.28 C
137 01-02-2019 11:20:00 3.1 C 95 % 2.38 C
138 01-02-2019 11:25:00 3.1 C 95 % 2.38 C
139 01-02-2019 11:30:00 3.2 C 95 % 2.48 C
140 01-02-2019 11:35:00 3.3 C 95 % 2.58 C
141 01-02-2019 11:40:00 3.3 C 95 % 2.58 C
142 01-02-2019 11:45:00 3.4 C 94 % 2.53 C
143 01-02-2019 11:50:00 3.5 C 94 % 2.63 C
144 01-02-2019 11:55:00 3.6 C 94 % 2.73 C
145 01-02-2019 12:00:00 3.6 C 94 % 2.73 C
146 01-02-2019 12:05:00 3.7 C 94 % 2.83 C
147 01-02-2019 12:10:00 3.7 C 94 % 2.83 C
148 01-02-2019 12:15:00 3.7 C 93 % 2.68 C
149 01-02-2019 12:20:00 3.6 C 93 % 2.58 C
150 01-02-2019 12:25:00 3.4 C 93 % 2.38 C
Sensor: Nr:Datum:Temp:Feuchte:Taupunkt:
Aussen-T/F 151 01-02-2019 12:30:00 3.2 C 93 % 2.18 C
152 01-02-2019 12:35:00 3.1 C 93 % 2.08 C
153 01-02-2019 12:40:00 2.8 C 93 % 1.78 C
154 01-02-2019 12:45:00 2.7 C 93 % 1.68 C
155 01-02-2019 12:50:00 2.6 C 93 % 1.59 C
156 01-02-2019 12:55:00 2.6 C 94 % 1.73 C
157 01-02-2019 13:00:00 2.7 C 94 % 1.83 C
158 01-02-2019 13:05:00 2.8 C 95 % 2.08 C
159 01-02-2019 13:10:00 2.8 C 94 % 1.93 C
160 01-02-2019 13:15:00 2.8 C 94 % 1.93 C
161 01-02-2019 13:20:00 2.7 C 94 % 1.83 C
162 01-02-2019 13:25:00 2.6 C 94 % 1.73 C
163 01-02-2019 13:30:00 2.6 C 95 % 1.88 C
164 01-02-2019 13:35:00 2.8 C 95 % 2.08 C
165 01-02-2019 13:40:00 2.8 C 95 % 2.08 C
166 01-02-2019 13:45:00 2.8 C 94 % 1.93 C
167 01-02-2019 13:50:00 2.7 C 94 % 1.83 C
168 01-02-2019 13:55:00 2.7 C 94 % 1.83 C
169 01-02-2019 14:00:00 2.8 C 95 % 2.08 C
170 01-02-2019 14:05:00 2.8 C 95 % 2.08 C
171 01-02-2019 14:10:00 3.1 C 95 % 2.38 C
172 01-02-2019 14:15:00 3.3 C 96 % 2.72 C
173 01-02-2019 14:20:00 3.6 C 96 % 3.02 C
174 01-02-2019 14:25:00 3.8 C 96 % 3.22 C
175 01-02-2019 14:30:00 3.9 C 95 % 3.17 C
Sensor: Nr:Datum:Temp:Feuchte:Taupunkt:
Aussen-T/F 176 01-02-2019 14:35:00 3.8 C 94 % 2.93 C
177 01-02-2019 14:40:00 3.7 C 94 % 2.83 C
178 01-02-2019 14:45:00 3.7 C 94 % 2.83 C
179 01-02-2019 14:50:00 3.7 C 94 % 2.83 C
180 01-02-2019 14:55:00 3.7 C 94 % 2.83 C
181 01-02-2019 15:00:00 3.7 C 94 % 2.83 C
182 01-02-2019 15:05:00 3.5 C 93 % 2.48 C
183 01-02-2019 15:10:00 3.4 C 93 % 2.38 C
184 01-02-2019 15:15:00 3.3 C 94 % 2.43 C
185 01-02-2019 15:20:00 3.3 C 94 % 2.43 C
186 01-02-2019 15:25:00 3.2 C 94 % 2.33 C
187 01-02-2019 15:30:00 3.1 C 94 % 2.23 C
188 01-02-2019 15:35:00 3 C 94 % 2.13 C
189 01-02-2019 15:40:00 3 C 94 % 2.13 C
190 01-02-2019 15:45:00 3.1 C 94 % 2.23 C
191 01-02-2019 15:50:00 3.1 C 94 % 2.23 C
192 01-02-2019 15:55:00 3.1 C 95 % 2.38 C
193 01-02-2019 16:00:00 3.1 C 95 % 2.38 C
194 01-02-2019 16:05:00 3.1 C 95 % 2.38 C
195 01-02-2019 16:10:00 3.1 C 95 % 2.38 C
196 01-02-2019 16:15:00 3.1 C 95 % 2.38 C
197 01-02-2019 16:20:00 3 C 95 % 2.28 C
198 01-02-2019 16:25:00 2.9 C 95 % 2.18 C
199 01-02-2019 16:30:00 2.8 C 95 % 2.08 C
200 01-02-2019 16:35:00 2.7 C 94 % 1.83 C
Sensor: Nr:Datum:Temp:Feuchte:Taupunkt:
Aussen-T/F 201 01-02-2019 16:40:00 2.7 C 95 % 1.98 C
202 01-02-2019 16:45:00 2.7 C 95 % 1.98 C
203 01-02-2019 16:50:00 2.6 C 95 % 1.88 C
204 01-02-2019 16:55:00 2.6 C 95 % 1.88 C
205 01-02-2019 17:00:00 2.5 C 95 % 1.78 C
206 01-02-2019 17:05:00 2.6 C 95 % 1.88 C
207 01-02-2019 17:10:00 2.6 C 95 % 1.88 C
208 01-02-2019 17:15:00 2.6 C 95 % 1.88 C
209 01-02-2019 17:20:00 2.6 C 95 % 1.88 C
210 01-02-2019 17:25:00 2.5 C 95 % 1.78 C
211 01-02-2019 17:30:00 2.5 C 95 % 1.78 C
212 01-02-2019 17:35:00 2.5 C 96 % 1.93 C
213 01-02-2019 17:40:00 2.5 C 96 % 1.93 C
214 01-02-2019 17:45:00 2.6 C 96 % 2.03 C
215 01-02-2019 17:50:00 2.5 C 96 % 1.93 C
216 01-02-2019 17:55:00 2.5 C 96 % 1.93 C
217 01-02-2019 18:00:00 2.5 C 96 % 1.93 C
218 01-02-2019 18:05:00 2.5 C 96 % 1.93 C
219 01-02-2019 18:10:00 2.6 C 96 % 2.03 C
220 01-02-2019 18:15:00 2.6 C 96 % 2.03 C
221 01-02-2019 18:20:00 2.5 C 96 % 1.93 C
222 01-02-2019 18:25:00 2.5 C 96 % 1.93 C
223 01-02-2019 18:30:00 2.4 C 96 % 1.83 C
224 01-02-2019 18:35:00 2.4 C 96 % 1.83 C
225 01-02-2019 18:40:00 2.4 C 96 % 1.83 C
Sensor: Nr:Datum:Temp:Feuchte:Taupunkt:
Aussen-T/F 226 01-02-2019 18:45:00 2.4 C 96 % 1.83 C
227 01-02-2019 18:50:00 2.4 C 96 % 1.83 C
228 01-02-2019 18:55:00 2.4 C 96 % 1.83 C
229 01-02-2019 19:00:00 2.4 C 96 % 1.83 C
230 01-02-2019 19:05:00 2.4 C 96 % 1.83 C
231 01-02-2019 19:10:00 2.3 C 96 % 1.73 C
232 01-02-2019 19:15:00 2.3 C 96 % 1.73 C
233 01-02-2019 19:20:00 2.3 C 96 % 1.73 C
234 01-02-2019 19:25:00 2.3 C 96 % 1.73 C
235 01-02-2019 19:30:00 2.2 C 96 % 1.63 C
236 01-02-2019 19:35:00 2.2 C 96 % 1.63 C
237 01-02-2019 19:40:00 2.2 C 96 % 1.63 C
238 01-02-2019 19:45:00 2.1 C 96 % 1.53 C
239 01-02-2019 19:50:00 2.1 C 96 % 1.53 C
240 01-02-2019 19:55:00 2.1 C 96 % 1.53 C
241 01-02-2019 20:00:00 2.1 C 96 % 1.53 C
242 01-02-2019 20:05:00 2.1 C 96 % 1.53 C
243 01-02-2019 20:10:00 2 C 96 % 1.43 C
244 01-02-2019 20:15:00 2 C 96 % 1.43 C
245 01-02-2019 20:20:00 1.9 C 96 % 1.33 C
246 01-02-2019 20:25:00 2 C 96 % 1.43 C
247 01-02-2019 20:30:00 2 C 96 % 1.43 C
248 01-02-2019 20:35:00 2.1 C 96 % 1.53 C
249 01-02-2019 20:40:00 2.1 C 96 % 1.53 C
250 01-02-2019 20:45:00 2 C 96 % 1.43 C
Sensor: Nr:Datum:Temp:Feuchte:Taupunkt:
Aussen-T/F 251 01-02-2019 20:50:00 2 C 96 % 1.43 C
252 01-02-2019 20:55:00 1.9 C 96 % 1.33 C
253 01-02-2019 21:00:00 1.9 C 96 % 1.33 C
254 01-02-2019 21:05:00 1.9 C 96 % 1.33 C
255 01-02-2019 21:10:00 1.9 C 96 % 1.33 C
256 01-02-2019 21:15:00 1.9 C 96 % 1.33 C
257 01-02-2019 21:20:00 1.9 C 96 % 1.33 C
258 01-02-2019 21:25:00 1.8 C 96 % 1.23 C
259 01-02-2019 21:30:00 1.8 C 96 % 1.23 C
260 01-02-2019 21:35:00 1.8 C 96 % 1.23 C
261 01-02-2019 21:40:00 1.7 C 96 % 1.13 C
262 01-02-2019 21:45:00 1.7 C 96 % 1.13 C
263 01-02-2019 21:50:00 1.7 C 96 % 1.13 C
264 01-02-2019 21:55:00 1.7 C 96 % 1.13 C
265 01-02-2019 22:00:00 1.7 C 96 % 1.13 C
266 01-02-2019 22:05:00 1.7 C 96 % 1.13 C
267 01-02-2019 22:10:00 1.7 C 96 % 1.13 C
268 01-02-2019 22:15:00 1.8 C 96 % 1.23 C
269 01-02-2019 22:20:00 1.7 C 96 % 1.13 C
270 01-02-2019 22:25:00 1.7 C 96 % 1.13 C
271 01-02-2019 22:30:00 1.7 C 96 % 1.13 C
272 01-02-2019 22:35:00 1.7 C 96 % 1.13 C
273 01-02-2019 22:40:00 1.6 C 96 % 1.03 C
274 01-02-2019 22:45:00 1.6 C 96 % 1.03 C
275 01-02-2019 22:50:00 1.6 C 96 % 1.03 C
Sensor: Nr:Datum:Temp:Feuchte:Taupunkt:
Aussen-T/F 276 01-02-2019 22:55:00 1.6 C 96 % 1.03 C
277 01-02-2019 23:00:00 1.5 C 96 % 0.93 C
278 01-02-2019 23:05:00 1.5 C 96 % 0.93 C
279 01-02-2019 23:10:00 1.5 C 96 % 0.93 C
280 01-02-2019 23:15:00 1.5 C 97 % 1.08 C
281 01-02-2019 23:20:00 1.6 C 97 % 1.18 C
282 01-02-2019 23:25:00 1.6 C 97 % 1.18 C
283 01-02-2019 23:30:00 1.6 C 97 % 1.18 C
284 01-02-2019 23:35:00 1.6 C 97 % 1.18 C
285 01-02-2019 23:40:00 1.6 C 97 % 1.18 C
286 01-02-2019 23:45:00 1.7 C 97 % 1.28 C
287 01-02-2019 23:50:00 1.7 C 97 % 1.28 C
288 01-02-2019 23:55:00 1.7 C 97 % 1.28 C

Legende:
   Min
   Max


Maximal/Minimal-Werte vom 01.02.2019 - 01.02.2019

Sensor Min Max Avg
Temp
(Aussen-T/F)
-0.9 °C
01-02-2019  00:00:00
3.9 °C
01-02-2019  14:30:00
1.75 °C
Feuchte
(Aussen-T/F)
93 %
01-02-2019  12:15:00
97 %
01-02-2019  03:10:00
95.64 %
Taupunkt
(Aussen-T/F)
-1.46 C
01-02-2019  00:00:00
3.22 C
01-02-2019  14:25:00
1.12 C

Die Daten stammen von einer Davis Vantage Pro 2 Wetter-Station und werden unter Linux mit der Software wview2wettercgi und aufbereitet. Alle Angaben erfolgen ohne Gewähr für ihre Vollständigkeit oder Richtigkeit.
Kontakt: Rainer Krienke krienke@uni-koblenz.de . Meine Webseiten an der Uni Koblenz oder privat.
Version: $Revision: 0.78 $